Flag for Canada Weather past 2 weeks in Kings County, Nova Scotia, Canada

Now
58 °F

Cool.


Feels Like: 58 °F
Forecast: 58 / 79 °F
Wind: 2 mph from Southeast

Location: McNabs Island - AUT

Current Time: Jul 26, 2014 at 6:18:10 AM

Latest Report: Jul 26, 2014 at 6:00 AM


Visibility: N/A

Pressure: 29.90 "Hg

Humidity: 87%

Dew point: 54 °F

Location of Kings CountyLocation

Historic Weather in Kings County — Graph

°F

Kings County temperature yesterday

Maximum temperature yesterday: 75 °F (at 6:00 PM)
Minimum temperature yesterday: 62 °F (at 11:00 PM)
Average temperature yesterday: 66 °F

Past Weeks' High & Low Weather Summary

 TemperatureHumidityPressure
High76 °F (Jul 19, 12:00 PM)100% (Jul 16, 7:00 AM)30.28 "Hg (Jul 16, 7:00 AM)
Low51 °F (Jul 13, 6:00 AM)11% (Jul 18, 9:00 AM)29.75 "Hg (Jul 24, 6:00 PM)
Average63 °F81%30.03 "Hg
* Reported Jul 11 5:00 AM — Jul 26 5:00 AM, Kings County, Weather by CustomWeather, © 2014

Note: Actual official high and low records may vary slightly from our data, if they occured in-between our weather recording intervals... More about our weather records

Advertising

Kings County weather history for previous 24 hours

 ConditionsComfort  
Time TempWeatherWind HumidityBarometerVisibility
5:00 AM
Jul 26
56 °FCool.2 mph91%29.90 "HgN/A
4:00 AM57 °FCool.2 mph85%29.89 "HgN/A
3:00 AM60 °FCool.1 mph77%29.88 "HgN/A
2:00 AM63 °FMild.3 mph72%29.88 "HgN/A
1:00 AM60 °FCool.2 mph79%29.88 "HgN/A
12:00 AM61 °FCool.3 mph76%29.88 "HgN/A
11:00 PM
Jul 25
62 °FCool.5 mph74%29.87 "HgN/A
10:00 PM63 °FMild.3 mph70%29.85 "HgN/A
9:00 PM68 °FMild.6 mph61%29.83 "HgN/A
8:00 PM71 °FMild.7 mph53%29.82 "HgN/A
7:00 PM74 °FMild.6 mph50%29.80 "HgN/A
6:00 PM75 °FMild.6 mph55%29.79 "HgN/A
5:00 PM71 °FMild.3 mph69%29.78 "HgN/A
4:00 PM65 °FMild.3 mph82%29.78 "HgN/A
3:00 PM66 °FMild.3 mph80%29.79 "HgN/A
2:00 PM64 °FMild.8 mph83%29.79 "HgN/A
1:00 PM73 °FMild.3 mph62%29.79 "HgN/A
12:00 PM69 °FMild.3 mph83%29.80 "HgN/A
11:00 AM67 °FMild.5 mph85%29.81 "HgN/A
10:00 AM65 °FMild.5 mph89%29.82 "HgN/A
9:00 AM64 °FMild.7 mph92%29.82 "HgN/A
8:00 AM64 °FMild.6 mph93%29.81 "HgN/A
7:00 AM64 °FMild.5 mph95%29.79 "HgN/A
6:00 AM64 °FMild.5 mph95%29.78 "HgN/A
Weather by CustomWeather, © 2014

See weather overviewHow to use our weather pages